Oxford, NC

9:59 AM EDT on March 27, 2017 (GMT -0400)
Henderson-Oxford

Weather History for KHNZ - March, 2013

Change the Weather History Date:

Friday, March 8, 2013

  Actual Average (KTDF) Record (KTDF)
Temperature  
Mean Temperature 42 °F -  
Max Temperature 53 °F 58 °F 86 °F (1974)
Min Temperature 31 °F 34 °F 14 °F (1986)
Degree Days  
Heating Degree Days 23    
Moisture  
Dew Point 22 °F    
Average Humidity 47    
Maximum Humidity 73    
Minimum Humidity 28    
Precipitation  
Precipitation 0.00 in - - ()
Sea Level Pressure  
Sea Level Pressure 30.20 in    
Wind  
Wind Speed 8 mph (NW)    
Max Wind Speed 17 mph    
Max Gust Speed 28 mph    
Visibility 10 miles    
Events      
Averages and records for this station are not official NWS values.
T = Trace of Precipitation, MM = Missing Value Source: NWS Daily Summary

Daily Weather History Graph

Daily Weather History Graph

Search for Another Location

Airport or City:

Trip Planner

Search our weather history database for the weather conditions in past years. The results will help you decide how hot, cold, wet, or windy it might be!

Date:

Astronomy

Mar. 08, 2013 Rise Set
Actual Time 6:34 AM EST 6:15 PM EST
Civil Twilight 6:08 AM EST 6:41 PM EST
Nautical Twilight 5:39 AM EST 7:11 PM EST
Astronomical Twilight 5:09 AM EST 7:41 PM EST
Moon 4:12 AM EST (3/8) 3:12 PM EST (3/8)
Length of Visible Light 12h 32m
Length of Day
11h 40m
Waning Crescent, 12% of the Moon is Illuminated
Mar 8
Waning Crescent
Mar 11
New
Mar 19
First Quarter
Mar 27
Full
Apr 3
Last Quarter

Hourly Weather History & Observations

Time (EST) Temp. Windchill Dew Point Humidity Pressure Visibility Wind Dir Wind Speed Gust Speed Precip Events Conditions
12:15 AM 35.6 °F 30.7 °F 23.2 °F 61% 30.21 in 10.0 mi WNW 5.8 mph - N/A   Clear
12:35 AM 35.6 °F 29.2 °F 23.2 °F 61% 30.20 in 10.0 mi WNW 8.1 mph - N/A   Clear
1:15 AM 34.5 °F 30.4 °F 23.5 °F 64% 30.21 in 10.0 mi West 4.6 mph - N/A   Clear
1:35 AM 34.5 °F 30.4 °F 23.5 °F 64% 30.21 in 10.0 mi West 4.6 mph - N/A   Clear
1:55 AM 34.2 °F 30.0 °F 23.7 °F 66% 30.20 in 10.0 mi WNW 4.6 mph - N/A   Clear
2:15 AM 33.8 °F 30.8 °F 23.9 °F 67% 30.20 in 10.0 mi West 3.5 mph - N/A   Clear
2:55 AM 32.9 °F 28.5 °F 23.9 °F 69% 30.19 in 10.0 mi West 4.6 mph - N/A   Clear
3:15 AM 32.5 °F 29.3 °F 23.9 °F 70% 30.18 in 10.0 mi West 3.5 mph - N/A   Clear
3:35 AM 32.0 °F 28.7 °F 23.9 °F 72% 30.18 in 10.0 mi West 3.5 mph - N/A   Clear
3:55 AM 31.8 °F 27.3 °F 23.9 °F 73% 30.19 in 10.0 mi West 4.6 mph - N/A   Clear
4:15 AM 32.0 °F 27.5 °F 24.3 °F 73% 30.19 in 10.0 mi West 4.6 mph - N/A   Clear
4:55 AM 32.9 °F 28.5 °F 24.1 °F 70% 30.18 in 10.0 mi West 4.6 mph - N/A   Clear
5:15 AM 32.9 °F 29.8 °F 23.9 °F 69% 30.18 in 10.0 mi West 3.5 mph - N/A   Clear
5:35 AM 33.3 °F 28.9 °F 23.9 °F 69% 30.19 in 10.0 mi WNW 4.6 mph - N/A   Clear
5:55 AM 33.1 °F 28.7 °F 23.7 °F 68% 30.19 in 10.0 mi West 4.6 mph - N/A   Clear
6:15 AM 33.1 °F 27.7 °F 23.7 °F 68% 30.20 in 10.0 mi West 5.8 mph - N/A   Clear
6:55 AM 33.1 °F 30.0 °F 23.9 °F 69% 30.22 in 10.0 mi NW 3.5 mph - N/A   Clear
7:35 AM 34.9 °F 32.0 °F 24.4 °F 66% 30.22 in 10.0 mi WNW 3.5 mph - N/A   Clear
7:55 AM 36.5 °F 31.8 °F 25.0 °F 63% 30.22 in 10.0 mi NW 5.8 mph - N/A   Clear
8:15 AM 38.5 °F 33.4 °F 25.7 °F 60% 30.22 in 10.0 mi NW 6.9 mph - N/A   Clear
8:35 AM 40.5 °F 33.2 °F 25.0 °F 54% 30.23 in 10.0 mi NNW 12.7 mph 18.4 mph N/A   Clear
8:55 AM 42.1 °F 35.7 °F 25.2 °F 51% 30.23 in 10.0 mi North 11.5 mph 17.3 mph N/A   Clear
9:15 AM 43.0 °F 36.4 °F 23.7 °F 47% 30.23 in 10.0 mi NNW 12.7 mph 18.4 mph N/A   Clear
9:35 AM 43.2 °F 35.6 °F 21.7 °F 43% 30.24 in 10.0 mi NNW 16.1 mph 27.6 mph N/A   Clear
9:55 AM 44.4 °F 38.6 °F 21.4 °F 40% 30.24 in 10.0 mi North 11.5 mph 21.9 mph N/A   Scattered Clouds
10:15 AM 45.0 °F 37.6 °F 19.4 °F 36% 30.24 in 10.0 mi NNW 17.3 mph 23.0 mph N/A   Clear
10:35 AM 45.5 °F 39.9 °F 19.4 °F 35% 30.23 in 10.0 mi NNW 11.5 mph 19.6 mph N/A   Clear
10:55 AM 45.7 °F 41.0 °F 18.5 °F 34% 30.22 in 10.0 mi NW 9.2 mph 20.7 mph N/A   Clear
11:15 AM 46.8 °F - 18.5 °F 32% 30.22 in 10.0 mi NW 12.7 mph 19.6 mph N/A   Clear
11:35 AM 48.2 °F - 18.9 °F 31% 30.22 in 10.0 mi NW 11.5 mph 19.6 mph N/A   Clear
11:55 AM 48.2 °F - 19.9 °F 33% 30.21 in 10.0 mi NNW 13.8 mph 24.2 mph N/A   Clear
12:15 PM 48.0 °F - 18.7 °F 31% 30.20 in 10.0 mi NW 16.1 mph - N/A   Clear
12:35 PM 49.3 °F - 18.9 °F 30% 30.19 in 10.0 mi North 15.0 mph 21.9 mph N/A   Clear
12:55 PM 50.0 °F - 19.4 °F 30% 30.18 in 10.0 mi NNW 10.4 mph 18.4 mph N/A   Clear
1:15 PM 49.3 °F - 18.9 °F 30% 30.17 in 10.0 mi North 13.8 mph 25.3 mph N/A   Clear
1:35 PM 50.9 °F - 19.9 °F 30% 30.16 in 10.0 mi NW 11.5 mph 20.7 mph N/A   Clear
1:55 PM 51.1 °F - 19.9 °F 29% 30.16 in 10.0 mi WNW 15.0 mph 20.7 mph N/A   Clear
2:15 PM 51.8 °F - 20.1 °F 29% 30.14 in 10.0 mi WNW 13.8 mph 19.6 mph N/A   Clear
2:35 PM 51.6 °F - 20.3 °F 29% 30.14 in 10.0 mi NNW 13.8 mph 25.3 mph N/A   Clear
2:55 PM 52.7 °F - 20.7 °F 29% 30.13 in 10.0 mi NNW 12.7 mph 18.4 mph N/A   Clear
3:15 PM 52.3 °F - 20.1 °F 28% 30.14 in 10.0 mi NW 9.2 mph 19.6 mph N/A   Clear
3:35 PM 53.2 °F - 21.6 °F 29% 30.14 in 10.0 mi NNW 12.7 mph 23.0 mph N/A   Clear
3:55 PM 53.1 °F - 20.5 °F 28% 30.14 in 10.0 mi NNW 11.5 mph 19.6 mph N/A   Clear
4:15 PM 53.4 °F - 21.0 °F 28% 30.14 in 10.0 mi NNW 13.8 mph 18.4 mph N/A   Clear
4:35 PM 52.9 °F - 20.1 °F 28% 30.16 in 10.0 mi NNW 10.4 mph 20.7 mph N/A   Clear
4:55 PM 52.7 °F - 20.5 °F 28% 30.17 in 10.0 mi NW 9.2 mph 21.9 mph N/A   Clear
5:15 PM 52.7 °F - 20.8 °F 29% 30.16 in 10.0 mi NNW 15.0 mph 19.6 mph N/A   Clear
5:35 PM 51.8 °F - 19.9 °F 29% 30.17 in 10.0 mi NNW 8.1 mph 18.4 mph N/A   Clear
5:55 PM 50.7 °F - 20.7 °F 31% 30.18 in 10.0 mi NNW 11.5 mph 18.4 mph N/A   Unknown
6:15 PM 49.1 °F - 20.7 °F 33% 30.18 in 10.0 mi NNW 9.2 mph - N/A   Clear
6:35 PM 48.2 °F - 21.0 °F 34% 30.19 in 10.0 mi North 5.8 mph - N/A   Clear
6:55 PM 47.3 °F - 21.7 °F 36% 30.20 in 10.0 mi North 6.9 mph - N/A   Clear
7:15 PM 47.3 °F - 21.7 °F 36% 30.21 in 10.0 mi NNW 8.1 mph - N/A   Clear
7:35 PM 46.4 °F 42.4 °F 21.9 °F 38% 30.22 in 10.0 mi North 8.1 mph - N/A   Clear
7:55 PM 45.3 °F 41.6 °F 22.8 °F 41% 30.23 in 10.0 mi North 6.9 mph - N/A   Clear
8:15 PM 44.6 °F 41.4 °F 23.9 °F 44% 30.24 in 10.0 mi NNE 5.8 mph - N/A   Clear
8:35 PM 43.7 °F 39.7 °F 24.6 °F 47% 30.24 in 10.0 mi North 6.9 mph - N/A   Clear
8:55 PM 43.0 °F 40.3 °F 24.6 °F 48% 30.24 in 10.0 mi North 4.6 mph - N/A   Clear
9:15 PM 43.0 °F 37.7 °F 24.4 °F 48% 30.25 in 10.0 mi North 9.2 mph - N/A   Clear
9:35 PM 42.3 °F 37.9 °F 24.8 °F 50% 30.25 in 10.0 mi North 6.9 mph - N/A   Clear
9:55 PM 42.1 °F 37.1 °F 24.6 °F 50% 30.25 in 10.0 mi North 8.1 mph - N/A   Clear
10:15 PM 41.9 °F 38.2 °F 24.8 °F 51% 30.26 in 10.0 mi North 5.8 mph - N/A   Clear
10:35 PM 41.0 °F 37.1 °F 24.8 °F 53% 30.27 in 10.0 mi NNW 5.8 mph - N/A   Clear
10:55 PM 40.5 °F 36.5 °F 24.8 °F 54% 30.27 in 10.0 mi NNW 5.8 mph - N/A   Clear
11:15 PM 39.9 °F 36.7 °F 24.8 °F 55% 30.28 in 10.0 mi NW 4.6 mph - N/A   Clear
11:55 PM 39.4 °F 33.8 °F 24.8 °F 56% 30.28 in 10.0 mi NW 8.1 mph - N/A   Clear